TimeCST,TemperatureF,Dew PointF,Humidity,Sea Level PressureIn,VisibilityMPH,Wind Direction,Wind SpeedMPH,Gust SpeedMPH,PrecipitationIn,Events,Conditions,WindDirDegrees,DateUTC
12:53 AM,75.9,75.9,100,29.96,10.0,SE,8.1,-,0.00,,Mostly Cloudy,130,2013-11-06 06:53:00
1:05 AM,75.2,75.2,100,29.95,10.0,SE,6.9,-,N/A,,Scattered Clouds,130,2013-11-06 07:05:00
1:53 AM,75.9,75.9,100,29.94,10.0,ESE,5.8,-,0.00,Rain,Light Rain,120,2013-11-06 07:53:00
2:53 AM,75.0,75.0,100,29.94,10.0,ESE,5.8,-,0.00,,Mostly Cloudy,120,2013-11-06 08:53:00
3:53 AM,75.0,75.0,100,29.95,10.0,ESE,5.8,-,N/A,,Overcast,120,2013-11-06 09:53:00
4:02 AM,75.2,75.2,100,29.95,10.0,ESE,4.6,-,N/A,,Overcast,120,2013-11-06 10:02:00
4:11 AM,75.2,75.2,100,29.95,10.0,ESE,4.6,-,N/A,,Overcast,120,2013-11-06 10:11:00
4:22 AM,75.2,75.2,100,29.95,10.0,SE,4.6,-,N/A,,Overcast,130,2013-11-06 10:22:00
4:34 AM,75.2,75.2,100,29.95,10.0,ESE,4.6,-,N/A,,Overcast,120,2013-11-06 10:34:00
4:53 AM,75.0,75.0,100,29.96,10.0,ESE,4.6,-,N/A,,Partly Cloudy,120,2013-11-06 10:53:00
5:53 AM,73.9,73.9,100,29.96,10.0,ESE,4.6,-,N/A,,Clear,110,2013-11-06 11:53:00
6:53 AM,72.0,72.0,100,29.98,10.0,East,4.6,-,N/A,,Scattered Clouds,100,2013-11-06 12:53:00
7:53 AM,75.9,75.9,100,30.00,10.0,ESE,3.5,-,N/A,,Overcast,120,2013-11-06 13:53:00
8:53 AM,78.1,77.0,96,30.02,10.0,SE,4.6,-,N/A,,Overcast,140,2013-11-06 14:53:00
9:53 AM,82.9,75.0,77,30.03,10.0,SE,11.5,-,N/A,,Partly Cloudy,140,2013-11-06 15:53:00
10:53 AM,84.0,72.0,67,30.03,10.0,SE,10.4,-,N/A,,Mostly Cloudy,140,2013-11-06 16:53:00
11:53 AM,84.9,70.0,61,30.02,10.0,SSE,6.9,-,N/A,,Mostly Cloudy,150,2013-11-06 17:53:00
12:53 PM,84.0,71.1,65,30.00,10.0,SSW,3.5,-,0.00,Rain,Light Rain,200,2013-11-06 18:53:00
1:53 PM,84.9,70.0,61,29.98,10.0,SE,8.1,-,0.00,,Overcast,140,2013-11-06 19:53:00
2:53 PM,82.9,72.0,69,29.98,10.0,ESE,9.2,-,0.00,,Overcast,110,2013-11-06 20:53:00
3:20 PM,78.8,75.2,89,30.00,10.0,North,8.1,-,N/A,Thunderstorm,Thunderstorm,10,2013-11-06 21:20:00
3:28 PM,75.2,75.2,100,30.00,10.0,NNW,11.5,-,N/A,Thunderstorm,Thunderstorm,330,2013-11-06 21:28:00
3:49 PM,73.4,73.4,100,30.02,10.0,WNW,10.4,-,N/A,Thunderstorm,Thunderstorm,300,2013-11-06 21:49:00
3:53 PM,73.0,73.0,100,30.02,10.0,NW,9.2,-,0.00,Thunderstorm,Thunderstorm,310,2013-11-06 21:53:00
4:09 PM,71.6,71.6,100,30.03,10.0,West,8.1,-,N/A,,Overcast,280,2013-11-06 22:09:00
4:53 PM,73.0,73.0,100,30.03,10.0,WNW,5.8,-,N/A,,Mostly Cloudy,290,2013-11-06 22:53:00
5:53 PM,73.0,73.0,100,30.03,10.0,Calm,Calm,-,0.09,Rain,Light Rain,0,2013-11-06 23:53:00
6:53 PM,73.0,-9999,N/A,30.05,10.0,North,5.8,-,0.00,,Mostly Cloudy,10,2013-11-07 00:53:00
7:53 PM,72.0,-9999,N/A,30.08,10.0,NNE,4.6,-,N/A,,Mostly Cloudy,30,2013-11-07 01:53:00
8:53 PM,73.0,73.0,100,30.11,10.0,NNE,4.6,-,N/A,,Scattered Clouds,30,2013-11-07 02:53:00
9:53 PM,75.0,75.0,100,30.12,5.0,NNE,3.5,-,N/A,,Overcast,20,2013-11-07 03:53:00
10:48 PM,75.2,75.2,100,30.13,10.0,NNE,11.5,-,N/A,,Overcast,30,2013-11-07 04:48:00
10:53 PM,75.0,75.0,100,30.13,10.0,NNE,12.7,20.7,N/A,,Overcast,30,2013-11-07 04:53:00
11:44 PM,73.4,73.4,100,30.14,10.0,NNE,16.1,-,0.00,,Overcast,30,2013-11-07 05:44:00
11:53 PM,73.9,73.9,100,30.14,8.0,NNE,10.4,23.0,0.00,Rain,Rain,20,2013-11-07 05:53:00